date,time,DOY,Ta_1_1_1,Pa_1_1_1,RH_1_1_1,LWin_1_1_1,LWout_1_1_1,SWin_1_1_1,SWout_1_1_1,PPFD_1_1_1,MWS_1_1_1,WD_1_1_1,SWC_1_1_1,Ts_1_1_1
[yyyy-mm-dd],[HH:MM],[ddd.ddd],[K],[Pa],[%],[W+1m-2],[W+1m-2],[W+1m-2],[W+1m-2],[µmol+1m-2s-1],[m+1s-1],[deg],[m+3m-3],[K]
2018-06-28,00:30,179.020,295.46200000000005,94345.333333333328,67.435333333333347,432.37266666666659,395.33299999999997,17.377333333333336,96.956666666666663,209.01333333333332,2.8366666666666660,274.36566666666664,0.25000000000000000,288.97566666666660
2018-06-28,01:00,179.041,294.93999999999988,94340.133333333331,70.066999999999979,428.22499999999997,381.19066666666663,18.327666666666666,75.898666666666671,161.42833333333334,2.1899999999999999,269.35566666666665,0.25000000000000000,288.98399999999981
2018-06-28,01:30,179.062,294.60099999999989,94350.000000000000,71.660666666666685,424.41299999999990,379.59199999999998,4.7810000000000015,20.489666666666665,55.432666666666670,2.1666666666666665,267.98899999999998,0.25000000000000000,288.97366666666676
2018-06-28,02:00,179.083,294.08366666666672,94353.666666666672,73.373000000000005,421.02366666666677,372.13000000000011,1.7630000000000006,3.2513333333333345,14.413999999999998,2.5400000000000005,244.32099999999997,0.25000000000000000,288.95433333333324
2018-06-28,02:30,179.104,293.50133333333332,94353.666666666672,75.772333333333322,416.28366666666659,361.66933333333333,1.2869999999999999,-2.8886666666666665,1.1990000000000003,2.6000000000000005,215.25566666666666,0.25000000000000000,288.92333333333329
2018-06-28,03:00,179.124,292.94166666666672,94358.833333333328,77.217333333333343,413.35233333333332,363.81633333333338,1.0636666666666668,-3.0133333333333332,2.00000000000000004E-003,3.0299999999999998,201.33333333333334,0.25000000000000000,288.88266666666664
2018-06-28,03:30,179.145,292.74766666666676,94416.266666666663,77.850666666666669,412.07033333333345,363.39433333333341,1.2066666666666666,-2.9300000000000002,-1.50000000000000029E-002,2.5166666666666671,221.80066666666667,0.25000000000000000,288.82900000000001
2018-06-28,04:00,179.166,292.38433333333330,94424.266666666663,79.270333333333340,409.88833333333338,359.63999999999999,1.1503333333333334,-2.8930000000000002,-9.00000000000000105E-003,2.9733333333333323,210.23333333333332,0.25000000000000000,288.77100000000007
2018-06-28,04:30,179.187,291.96500000000003,94427.533333333340,79.869999999999990,408.55233333333337,354.17599999999987,1.2333333333333334,-3.0400000000000000,-1.86666666666666682E-002,3.2766666666666660,212.76633333333334,0.25000000000000000,288.71366666666660
2018-06-28,05:00,179.208,291.69999999999999,94439.566666666666,80.638666666666651,407.60733333333326,353.20133333333331,1.1726666666666665,-2.8836666666666675,-2.00000000000000004E-003,4.0599999999999996,207.27766666666668,0.25000000000000000,288.65300000000002
2018-06-28,05:30,179.229,291.39533333333333,94423.000000000000,82.278666666666666,406.15266666666668,352.02600000000001,0.97533333333333327,-2.9623333333333339,-1.10000000000000028E-002,4.2066666666666670,207.14466666666667,0.25000000000000000,288.59666666666664
2018-06-28,06:00,179.249,291.27800000000002,94416.866666666669,83.028666666666666,406.01299999999998,351.42933333333337,1.3253333333333335,-2.7166666666666668,-1.40000000000000020E-002,4.4133333333333331,214.34399999999999,0.25000000000000000,288.53933333333333
2018-06-28,06:30,179.270,291.29100000000017,94433.433333333334,83.145999999999972,406.23233333333337,350.58600000000007,1.1306666666666667,-3.0059999999999998,-1.10000000000000028E-002,4.3466666666666667,217.45499999999998,0.25000000000000000,288.48366666666675
2018-06-28,07:00,179.291,291.17099999999994,94439.600000000006,83.530333333333346,405.71133333333336,351.23133333333334,1.1360000000000001,-2.8913333333333329,-1.30000000000000029E-002,4.6200000000000010,218.37766666666667,0.25000000000000000,288.44033333333329
2018-06-28,07:30,179.312,291.06566666666669,94451.800000000003,84.192666666666668,405.27166666666676,352.02399999999994,0.97633333333333350,-2.8206666666666673,-2.16666666666666709E-002,4.9933333333333341,217.44433333333333,0.25000000000000000,288.39999999999998
2018-06-28,08:00,179.333,290.83700000000010,94455.033333333340,85.391000000000005,403.81600000000009,350.27633333333335,1.0426666666666666,-2.9456666666666678,-4.00000000000000008E-003,4.1300000000000008,217.62200000000001,0.25000000000000000,288.35966666666667
2018-06-28,08:30,179.354,290.69333333333333,94458.766666666663,86.117333333333335,402.92833333333328,349.96999999999997,1.1570000000000000,-2.8630000000000000,-1.53333333333333360E-002,3.9900000000000007,215.97833333333335,0.25000000000000000,288.32766666666669
2018-06-28,09:00,179.374,290.84666666666658,94454.600000000006,85.614333333333349,403.77166666666676,350.89400000000006,1.3183333333333338,-2.6546666666666665,-2.33333333333333413E-002,4.1600000000000001,222.62233333333333,0.25000000000000000,288.28700000000003
2018-06-28,09:30,179.395,290.82000000000011,94464.666666666672,85.837333333333333,403.64666666666665,348.98966666666661,1.1273333333333333,-2.9456666666666664,4.66666666666666705E-003,4.1566666666666672,211.84399999999999,0.25000000000000000,288.26100000000014
2018-06-28,10:00,179.416,290.85699999999997,94478.433333333334,85.813666666666677,403.75600000000014,348.33100000000002,1.2503333333333333,-2.4813333333333332,1.1146666666666669,3.9766666666666666,217.44433333333333,0.25033333333333335,288.22433333333339
2018-06-28,10:30,179.437,290.64033333333344,94492.233333333337,86.750999999999991,402.54100000000005,346.42533333333330,3.3896666666666673,8.1046666666666667,18.899999999999995,3.8800000000000008,217.82200000000000,0.25000000000000000,288.19833333333321
2018-06-28,11:00,179.458,290.62399999999997,94512.233333333337,86.740333333333353,403.12566666666675,344.12666666666678,11.969333333333331,52.289999999999999,86.672333333333341,3.5266666666666664,223.93299999999999,0.25000000000000000,288.16933333333333
2018-06-28,11:30,179.479,290.88533333333339,94532.566666666666,85.796999999999997,405.60533333333331,346.49633333333338,24.389666666666663,124.57466666666667,209.04633333333334,3.4966666666666675,212.26700000000000,0.25000000000000000,288.14533333333333
2018-06-28,12:00,179.499,291.22033333333331,94537.833333333328,84.782666666666685,409.04733333333326,347.15166666666659,35.175000000000004,207.51400000000001,362.12866666666656,3.3299999999999996,207.45466666666664,0.25000000000000000,288.12066666666669
2018-06-28,12:30,179.520,292.13099999999997,94544.566666666666,82.168333333333337,415.67800000000005,352.24166666666667,49.104999999999997,296.82499999999999,536.84666666666658,3.2700000000000005,213.60033333333331,0.25000000000000000,288.10466666666673
2018-06-28,13:00,179.541,293.10300000000001,94550.100000000006,79.269999999999996,422.94033333333340,360.66533333333336,63.449666666666680,385.49133333333339,720.95033333333333,3.1066666666666674,210.85499999999999,0.25000000000000000,288.10733333333332
2018-06-28,13:30,179.562,294.16533333333336,94558.866666666669,75.853999999999999,431.07633333333337,369.58266666666663,77.030000000000015,472.26099999999985,906.16666666666663,3.0133333333333341,221.16499999999996,0.25000000000000000,288.12299999999999
2018-06-28,14:00,179.583,295.30766666666676,94567.800000000003,71.754333333333321,438.75566666666663,376.83599999999996,90.669000000000025,558.23233333333337,1088.8706666666665,3.2099999999999995,225.11133333333333,0.25000000000000000,288.16466666666668
2018-06-28,14:30,179.604,296.23766666666671,94553.866666666669,67.757666666666680,445.72699999999998,384.05866666666662,103.51799999999999,641.40999999999997,1264.8096666666665,3.2233333333333336,223.90000000000001,0.25000000000000000,288.23900000000015
2018-06-28,15:00,179.624,296.94566666666680,94545.300000000003,60.521666666666661,449.91433333333333,387.30966666666677,115.40966666666667,718.07200000000012,1425.9593333333328,4.6366666666666658,227.04433333333333,0.25000000000000000,288.36166666666674
2018-06-28,15:30,179.645,297.59900000000005,94545.333333333328,53.358666666666664,454.37000000000000,391.40599999999989,127.90799999999999,795.35200000000020,1591.5103333333332,4.8799999999999999,224.69966666666667,0.25000000000000000,288.47833333333347
2018-06-28,16:00,179.666,298.06299999999999,94540.199999999997,53.690666666666658,457.29366666666664,404.57466666666664,119.05866666666665,742.13866666666650,1469.5203333333334,4.3266666666666680,235.46666666666670,0.25000000000000000,288.59766666666667
2018-06-28,16:30,179.687,298.57166666666672,94541.000000000000,49.701666666666675,460.66800000000001,411.07766666666663,121.54366666666668,759.80866666666657,1499.8299999999997,4.1566666666666672,233.26666666666668,0.25000000000000000,288.73866666666675
2018-06-28,17:00,179.708,298.73533333333336,94561.866666666669,47.060666666666670,460.69833333333344,409.36066666666670,113.03666666666668,692.91599999999994,1418.0209999999997,3.3800000000000008,239.23333333333332,0.25000000000000000,288.90633333333324
2018-06-28,17:30,179.729,299.43133333333338,94573.699999999997,46.258999999999986,467.62600000000003,421.41799999999995,139.72066666666666,865.43133333333333,1785.7806666666668,4.3133333333333335,223.26666666666668,0.25000000000000000,289.03800000000007
2018-06-28,18:00,179.749,299.73700000000002,94583.066666666666,45.193999999999988,469.05033333333336,426.77333333333331,137.01899999999995,852.10333333333358,1748.4146666666668,4.2233333333333327,215.51066666666665,0.25000000000000000,289.18733333333336
2018-06-28,18:30,179.770,299.84633333333329,94552.066666666666,43.076999999999998,465.49366666666657,416.54933333333327,96.600999999999985,598.97833333333324,1187.0503333333331,2.7433333333333336,225.14500000000001,0.25000000000000000,289.32400000000001
2018-06-28,19:00,179.791,300.26100000000008,94530.433333333334,41.835666666666661,472.85433333333333,426.94633333333337,145.24800000000002,888.13966666666681,1811.8353333333330,3.8266666666666671,223.76633333333334,0.25000000000000000,289.48000000000008
2018-06-28,19:30,179.812,300.51999999999992,94484.399999999994,41.919999999999995,474.98166666666657,422.78599999999994,152.95033333333333,939.84133333333341,1939.1616666666666,4.2400000000000002,218.91100000000000,0.25000000000000000,289.67100000000005
2018-06-28,20:00,179.833,300.63833333333338,94492.966666666660,41.976333333333329,472.04599999999999,420.81366666666668,115.25700000000001,702.80966666666666,1453.4483333333335,3.2700000000000000,225.35566666666668,0.25000000000000000,289.84266666666667
2018-06-28,20:30,179.854,300.47199999999998,94492.066666666666,41.680333333333330,464.46766666666662,425.69900000000013,67.347666666666669,394.81933333333330,813.81899999999985,2.8100000000000005,208.32300000000001,0.24566666666666676,289.97200000000004
2018-06-28,21:00,179.874,300.49100000000010,94462.800000000003,41.904999999999994,464.42200000000014,419.88933333333324,73.195333333333338,421.91300000000007,867.21333333333325,3.1133333333333337,191.09999999999999,0.24000000000000016,290.06666666666666
2018-06-28,21:30,179.895,300.55700000000002,94447.333333333328,41.234999999999999,463.99300000000005,418.62233333333342,66.006666666666661,379.89300000000009,783.36133333333316,2.5333333333333332,180.94366666666664,0.24000000000000016,290.13366666666667
2018-06-28,22:00,179.916,300.59666666666658,94462.533333333340,40.727999999999987,460.45433333333324,428.36366666666657,33.804000000000002,199.94700000000000,417.53966666666679,1.3500000000000001,221.57766666666666,0.24000000000000016,290.19400000000002
2018-06-28,22:30,179.937,300.07433333333330,94478.266666666663,44.167000000000009,455.85799999999989,431.52233333333328,17.248000000000001,95.242333333333320,202.43699999999998,1.8666666666666671,188.18966666666665,0.24000000000000016,290.21833333333331
2018-06-28,23:00,179.958,299.92566666666670,94485.466666666660,46.070333333333323,455.84899999999993,416.95433333333335,31.186666666666667,174.52333333333340,366.94000000000017,2.1333333333333337,202.47800000000001,0.24000000000000016,290.21800000000002
2018-06-28,23:30,179.979,299.71900000000011,94482.333333333328,47.423333333333339,453.41399999999993,415.21999999999997,20.320333333333334,112.64133333333334,235.10133333333326,2.2599999999999998,210.03299999999999,0.24000000000000016,290.20399999999995
2018-06-29,00:00,180.000,299.14333333333343,94445.366666666669,48.213666666666676,450.65366666666665,415.84066666666666,13.280333333333333,68.398666666666657,143.52500000000003,2.8866666666666663,196.94399999999999,0.24000000000000016,290.18233333333347
